WTTO2: Illinois River, Watts, OK

Data processed at Sat Mar 10 2018 23:36


All information presented herein is the property of the government of the United States of America and may be revised or deleted at any time without prior notice.
Dissemination of this information without the expressed written consent of the Public Affairs Office, Tulsa District U.S. Army Corps of Engineers is strictly prohibited.
These data are gathered electronically and, as presented, have not undergone any form of quality control. These data are not guaranteed to be valid or correct.
Go to home page.
Go to station list.

Upstream stations:

Downstream station:
Previous Day
Next Day
Current Day
    
SHEF ID:       WTTO2     Illinois River near Watts, OK
STATION TYPE:  

               PRECIP     STAGE  STAGE(2)  RIV-FLOW   VOLTAGE  BAT-LOAD
                   in        ft        ft       cfs      volt      volt
              Ccp-Rev   Ccp-Rev   Ccp-Rev   Ccp-Rev   Ccp-Rev   Ccp-Rev
(US/Central)
03/08 00:00      0.00      4.48      1.44       893     12.90     11.07
03/08 01:00      0.00      4.47      3.12       887     12.90     11.07
03/08 02:00      0.00      4.48      1.26       893     12.80     11.01
03/08 03:00      0.00      4.48      1.44       893     12.80     10.72
03/08 04:00      0.00      4.47      1.89       887     12.80     10.96
03/08 05:00      0.00      4.46      2.05       881     12.70     10.90
03/08 06:00      0.00      4.45      2.38       875     12.70     10.84
03/08 07:00      0.00      4.45      2.65       875     13.40     10.84
03/08 08:00      0.00      4.44      2.40       869     13.90     11.54
03/08 09:00      0.00      4.43      1.33       864     13.90     11.89
03/08 10:00      0.00      4.43      1.25       864     13.90     12.13
03/08 11:00      0.00      4.42      2.05       858     13.90     12.13
03/08 12:00      0.00      4.41      2.17       852     13.90     11.95
03/08 13:00      0.00      4.40      1.81       846     13.90     11.89
03/08 14:00      0.00      4.40      3.01       846     13.90     11.83
03/08 15:00      0.00      4.39      3.06       841     13.90     11.83
03/08 16:00      0.00      4.39      2.25       841     13.90     11.83
03/08 17:00      0.00      4.38      2.87       835     13.90     11.07
03/08 18:00      0.00      4.37      2.98       829     13.10     11.01
03/08 19:00      0.00      4.37      1.25       829     13.00     10.84
03/08 20:00      0.00      4.36      0.15       824     13.00     10.78
03/08 21:00      0.00      4.36      2.81       824     12.90     10.90
03/08 22:00      0.00      4.36      2.37       824     12.90     10.84
03/08 23:00      0.00      4.36      2.50       824     12.90     11.01